Radiation Dose measured at exhaust stack monitor of Miscellaneous Solid Waste Incinerator Building/Incinerator raregas monitor
Date,Time,Incinerator Gas Monitor(cps),Wind Direction,Wind Velocity(m/s)
2022/06/12,00:00,1.5,north,1.7
2022/06/12,00:10,1.5,north-northwest,1.7
2022/06/12,00:20,1.5,north-northwest,1.5
2022/06/12,00:30,1.5,north-northwest,1.7
2022/06/12,00:40,1.5,northwest,1.7
2022/06/12,00:50,1.4,northwest,1.9
2022/06/12,01:00,1.4,northwest,2.0
2022/06/12,01:10,1.5,north-northwest,1.4
2022/06/12,01:20,1.5,northwest,1.7
2022/06/12,01:30,1.4,north-northwest,1.4
2022/06/12,01:40,1.5,northwest,3.0
2022/06/12,01:50,1.4,north-northwest,2.9
2022/06/12,02:00,1.5,north-northwest,3.4
2022/06/12,02:10,1.5,north-northwest,4.3
2022/06/12,02:20,1.5,north-northwest,3.1
2022/06/12,02:30,1.5,north,3.3
2022/06/12,02:40,1.5,north,3.6
2022/06/12,02:50,1.5,north-northwest,3.7
2022/06/12,03:00,1.4,north-northwest,3.6
2022/06/12,03:10,1.4,north-northwest,4.0
2022/06/12,03:20,1.5,north-northwest,4.5
2022/06/12,03:30,1.4,north-northwest,2.0
2022/06/12,03:40,1.5,north-northwest,3.2
2022/06/12,03:50,1.4,north-northwest,2.6
2022/06/12,04:00,1.5,north-northwest,3.5
2022/06/12,04:10,1.4,north,3.2
2022/06/12,04:20,1.5,north-northwest,3.7
2022/06/12,04:30,1.4,north-northwest,4.2
2022/06/12,04:40,1.5,north-northwest,3.3
2022/06/12,04:50,1.5,north-northwest,3.0
2022/06/12,05:00,1.5,north-northwest,2.9
2022/06/12,05:10,1.5,north-northwest,3.1
2022/06/12,05:20,1.4,north-northwest,3.8
2022/06/12,05:30,1.5,north-northwest,3.0
2022/06/12,05:40,1.5,north-northwest,4.0
2022/06/12,05:50,1.5,northeast,1.9
2022/06/12,06:00,1.6,north,7.4
2022/06/12,06:10,1.5,north,7.5
2022/06/12,06:20,1.5,north-northwest,9.9
2022/06/12,06:30,1.5,north-northwest,5.4
2022/06/12,06:40,1.5,north-northwest,7.5
2022/06/12,06:50,1.5,north,7.5
2022/06/12,07:00,1.5,north-northeast,4.9
2022/06/12,07:10,1.4,north-northeast,5.7
2022/06/12,07:20,1.4,north,6.1
2022/06/12,07:30,1.5,north,5.8
2022/06/12,07:40,1.5,north,5.0
2022/06/12,07:50,1.5,north,5.2
2022/06/12,08:00,1.5,north-northwest,6.1
2022/06/12,08:10,1.4,north-northwest,6.0
2022/06/12,08:20,1.5,north-northwest,7.3
2022/06/12,08:30,1.5,north-northwest,7.2
2022/06/12,08:40,1.5,north-northwest,7.1
2022/06/12,08:50,1.4,north-northwest,7.1
2022/06/12,09:00,1.5,north,4.7
2022/06/12,09:10,1.4,north-northwest,5.0
2022/06/12,09:20,1.5,north-northwest,5.8
2022/06/12,09:30,1.5,north-northwest,5.8
2022/06/12,09:40,1.4,north,5.0
2022/06/12,09:50,1.4,north-northwest,6.0
2022/06/12,10:00,1.5,north-northwest,7.1
2022/06/12,10:10,1.5,north,7.1
2022/06/12,10:20,1.4,north,6.9
2022/06/12,10:30,1.5,north,7.6
2022/06/12,10:40,1.6,north-northwest,7.4
2022/06/12,10:50,1.5,north-northwest,6.6
2022/06/12,11:00,1.5,north-northwest,7.0
2022/06/12,11:10,1.5,north-northwest,6.4
2022/06/12,11:20,1.4,north,3.5
2022/06/12,11:30,1.5,-,CALM
2022/06/12,11:40,1.5,north,5.4
2022/06/12,11:50,1.5,north-northeast,8.6
2022/06/12,12:00,1.4,north-northeast,7.5
2022/06/12,12:10,1.5,north-northwest,10.2
2022/06/12,12:20,1.6,east-southeast,2.8
2022/06/12,12:30,1.5,north,5.9
2022/06/12,12:40,1.4,north-northwest,6.3
2022/06/12,12:50,1.5,north-northwest,5.2
2022/06/12,13:00,1.6,north-northwest,4.8
2022/06/12,13:10,1.5,north-northwest,5.7
2022/06/12,13:20,1.5,north-northwest,5.5
2022/06/12,13:30,1.4,north-northwest,4.0
2022/06/12,13:40,1.5,north,5.5
2022/06/12,13:50,1.5,north-northwest,5.7
2022/06/12,14:00,1.5,north,5.9
2022/06/12,14:10,1.5,north-northwest,5.5
2022/06/12,14:20,1.5,north-northwest,5.1
2022/06/12,14:30,1.4,north,4.6
2022/06/12,14:40,1.5,north,6.5
2022/06/12,14:50,1.5,north-northeast,5.6
2022/06/12,15:00,1.5,north,7.8
2022/06/12,15:10,1.5,north,6.8
2022/06/12,15:20,1.5,north,6.2
2022/06/12,15:30,1.5,north,6.3
2022/06/12,15:40,1.5,north,6.7
2022/06/12,15:50,1.5,north-northeast,6.7
2022/06/12,16:00,1.6,north-northeast,6.9
2022/06/12,16:10,1.5,north-northeast,6.3
2022/06/12,16:20,1.4,north-northeast,5.9
2022/06/12,16:30,1.5,north-northeast,5.1
2022/06/12,16:40,1.5,north,4.6
2022/06/12,16:50,1.4,north,4.4
2022/06/12,17:00,1.5,north,3.3
2022/06/12,17:10,1.5,north-northeast,2.5
2022/06/12,17:20,1.4,north-northeast,2.9
2022/06/12,17:30,1.5,north-northeast,2.0
2022/06/12,17:40,1.5,north,2.0
2022/06/12,17:50,1.4,north,1.7
2022/06/12,18:00,1.5,north-northwest,2.3
2022/06/12,18:10,1.4,north-northeast,2.0
2022/06/12,18:20,1.5,north-northeast,2.3
2022/06/12,18:30,1.5,north-northeast,1.7
2022/06/12,18:40,1.4,northeast,2.0
2022/06/12,18:50,1.4,east-northeast,0.9
2022/06/12,19:00,1.5,east-northeast,0.6
2022/06/12,19:10,1.5,northeast,1.1
2022/06/12,19:20,1.4,east-northeast,1.7
2022/06/12,19:30,1.5,northeast,2.0
2022/06/12,19:40,1.5,northeast,2.3
2022/06/12,19:50,1.4,east-northeast,1.7
2022/06/12,20:00,1.6,east-northeast,1.7
2022/06/12,20:10,1.5,north-northeast,1.4
2022/06/12,20:20,1.5,northeast,1.2
2022/06/12,20:30,1.4,-,CALM
2022/06/12,20:40,1.4,-,CALM
2022/06/12,20:50,1.5,-,CALM
2022/06/12,21:00,1.4,northwest,1.7
2022/06/12,21:10,1.5,northwest,1.1
2022/06/12,21:20,1.5,west,0.9
2022/06/12,21:30,1.3,west,1.7
2022/06/12,21:40,1.5,west,2.6
2022/06/12,21:50,1.5,west,2.0
2022/06/12,22:00,1.5,west,2.2
2022/06/12,22:10,1.5,west-northwest,2.3
2022/06/12,22:20,1.4,west-northwest,2.0
2022/06/12,22:30,1.4,north-northwest,2.0
2022/06/12,22:40,1.4,north-northwest,2.0
2022/06/12,22:50,1.5,west-northwest,3.0
2022/06/12,23:00,1.6,west-northwest,5.8
2022/06/12,23:10,1.4,west-northwest,5.4
2022/06/12,23:20,1.5,northwest,6.6
2022/06/12,23:30,1.5,northwest,7.5
2022/06/12,23:40,1.5,northwest,5.7
2022/06/12,23:50,1.5,northwest,5.5
